Location: Les Chemineaux
(47.3024°N, 1.5104°E)
Time: 19:54:53
(UTC+00:00)

Cosmos 220 Rocket - Pass Details

Date: 19 May 2025
Orbit: 546 x 580 km, 74.0° (Epoch: 21 June)

Event Time Altitude Azimuth Distance (km) Brightness Sun altitude
Exits shadow 21:57:45 35° 191° (S) 897 4.5 -18.1°
Maximum altitude 21:59:22 78° 111° (ESE) 568 3.7 -18.2°
Drops below altitude 10° 22:03:25 10° 25° (NNE) 1,830 7.0 -18.5°
Sets 22:05:37 0° 24° (NNE) 2,726 8.0 -18.7°
